Temp
51 50 50 49 49 49 49 48 49 48 47 47 47 48 48 49 48 48 49 49 49 50 49 49 49 49 48 48 48 48 46 43 40 38 40 39 38 37 36 34 34 36
50 49 49 49 49 49 49 50 49 49 48 48 48 48 48 47 47 47 47 47 47 48 47 47 47 47 46 46 45 45 42 39 38 37 38 37 37 37 36 35 34 33
49 48 49 49 49 49 49 49 50 50 50 49 49 48 46 46 46 46 46 46 45 45 44 45 45 44 44 43 41 41 40 38 37 35 37 36 35 36 34 34 33 33
49 49 49 49 49 49 49 49 49 49 49 48 48 47 46 45 46 45 44 43 43 41 42 42 43 41 40 39 39 39 38 38 37 36 36 34 35 35 33 33 32 31
47 47 48 49 49 49 48 48 48 49 49 49 48 46 45 44 44 42 41 41 42 41 41 41 40 39 38 37 38 37 36 36 34 36 36 34 33 34 33 33 32 32
46 47 48 48 48 48 48 48 48 48 48 47 47 45 45 43 42 42 42 42 41 41 40 40 40 38 37 37 37 37 36 35 34 35 35 34 33 33 33 33 33 32
44 45 46 47 47 47 47 48 48 48 48 48 45 44 43 42 41 42 42 42 41 40 40 40 39 37 36 36 36 35 35 35 34 35 35 34 34 33 33 34 33 33
44 45 46 46 46 46 46 46 46 47 47 44 43 42 42 42 42 41 41 41 40 40 40 40 39 37 35 36 36 35 34 35 35 35 35 34 34 33 32 33 32 32
43 44 45 44 44 44 43 43 45 45 44 43 43 42 42 42 42 41 40 40 40 39 39 38 37 36 35 36 36 36 35 34 35 35 35 34 34 34 32 32 31 31
41 42 43 43 43 43 42 43 44 44 42 43 42 41 41 41 41 40 40 39 39 38 39 38 37 36 35 36 36 36 36 35 35 35 35 35 35 34 33 33 33 31
40 40 41 42 43 43 43 43 44 44 42 42 42 41 41 40 39 39 39 39 38 38 38 38 38 36 35 35 36 36 37 36 35 35 35 36 36 36 34 34 33 33
39 39 40 41 42 42 43 43 43 43 42 42 42 41 40 40 39 38 39 38 38 38 38 39 39 37 36 36 36 36 36 36 36 36 35 36 36 36 35 34 33 32
39 40 40 40 41 42 42 42 42 43 42 41 41 42 41 40 39 38 38 39 38 37 37 38 38 37 36 36 37 37 37 36 35 34 34 34 34 34 33 33 34 34
40 40 39 39 39 40 41 42 42 42 41 41 40 41 41 40 40 39 39 39 39 38 38 38 38 37 37 37 37 37 37 36 36 34 33 33 33 34 34 35 35 35
39 39 38 38 38 39 40 41 42 42 42 41 41 41 41 41 40 40 39 38 38 38 37 36 36 37 38 38 37 37 36 36 35 35 35 34 34 34 34 35 34 35
38 38 38 37 38 38 39 40 41 41 41 41 40 41 41 41 40 40 39 39 38 38 38 37 36 37 37 39 38 37 37 36 35 35 35 35 34 34 34 34 34 34
37 37 37 37 38 38 38 39 40 41 40 40 40 40 40 39 39 39 39 39 38 38 38 37 37 37 38 40 40 39 38 37 35 34 34 35 34 34 33 33 33 34
38 37 37 37 37 37 38 38 39 39 39 40 39 39 39 39 38 39 39 39 39 39 39 38 38 38 39 39 40 40 38 36 35 34 34 34 34 34 34 33 33 33
37 37 37 37 37 37 37 37 37 38 37 38 38 39 39 38 38 39 39 39 39 39 39 39 38 39 39 40 40 40 39 37 34 35 33 33 34 34 34 34 33 32
37 36 36 36 36 36 35 36 36 36 37 38 38 37 37 37 38 38 39 39 39 39 39 39 37 38 39 40 40 40 39 37 34 34 34 35 34 34 34 33 33 32
37 36 36 36 35 35 35 35 36 36 36 37 37 37 36 36 37 36 37 37 38 39 38 37 37 38 40 40 40 40 39 38 32 33 33 33 34 34 33 33 33 32
37 36 36 36 35 35 35 35 36 36 36 36 37 37 37 38 37 37 36 36 37 37 37 36 37 39 39 40 40 40 40 35 32 31 31 31 32 32 33 33 33 32
37 37 36 35 35 35 35 35 35 35 36 36 36 37 37 37 36 36 36 36 35 35 35 36 36 38 39 39 40 40 38 34 32 31 31 30 31 32 32 32 32 31
37 36 36 36 35 35 35 35 36 36 35 36 35 35 36 36 36 36 36 36 35 34 36 35 34 36 38 39 39 39 37 33 32 32 30 30 29 31 30 30 31 30
36 36 36 36 35 35 36 35 35 35 35 35 35 35 35 36 36 35 35 34 34 34 34 34 34 33 37 38 39 39 37 32 32 31 29 29 29 28 29 29 29 30
36 36 36 36 36 36 35 35 35 34 33 33 33 34 34 34 35 35 33 33 33 33 33 33 32 31 35 38 38 39 36 32 32 31 29 28 28 28 27 27 27 27
MSLP
1020.15 1020.43 1020.67 1020.93 1021.09 1021.25 1021.49 1021.69 1021.87 1022.07 1022.27 1022.39 1022.43 1022.47 1022.55 1022.57 1022.81 1023.01 1023.03 1023.19 1023.31 1023.43 1023.65 1023.89 1024.05 1024.27 1024.61 1024.91 1025.11 1025.41 1025.83 1026.17 1026.57 1026.97 1027.13 1027.37 1027.69 1027.97 1028.29 1028.55 1028.69 1028.63
1019.83 1020.09 1020.35 1020.55 1020.75 1020.95 1021.09 1021.23 1021.43 1021.63 1021.89 1022.05 1022.15 1022.31 1022.49 1022.71 1022.87 1022.91 1022.95 1023.03 1023.25 1023.35 1023.55 1023.79 1024.03 1024.19 1024.51 1024.83 1025.17 1025.41 1025.87 1026.21 1026.51 1026.99 1027.03 1027.25 1027.63 1027.87 1028.09 1028.35 1028.47 1029.03
1019.59 1019.81 1019.99 1020.11 1020.25 1020.47 1020.67 1020.89 1021.05 1021.23 1021.43 1021.59 1021.87 1022.17 1022.45 1022.65 1022.77 1022.83 1022.89 1023.01 1023.13 1023.29 1023.59 1023.81 1024.07 1024.33 1024.49 1024.75 1025.11 1025.43 1025.77 1026.13 1026.41 1026.93 1026.91 1027.13 1027.57 1027.69 1028.09 1028.37 1028.63 1028.73
1019.31 1019.47 1019.63 1019.79 1019.93 1020.15 1020.39 1020.61 1020.75 1020.91 1021.11 1021.41 1021.63 1021.89 1022.21 1022.47 1022.65 1022.83 1022.91 1023.07 1023.19 1023.41 1023.63 1023.85 1024.05 1024.39 1024.63 1024.89 1025.17 1025.47 1025.71 1025.93 1026.27 1026.63 1026.83 1027.27 1027.39 1027.55 1028.01 1028.27 1028.59 1028.95
1018.99 1019.25 1019.39 1019.51 1019.65 1019.85 1020.11 1020.25 1020.41 1020.57 1020.77 1020.99 1021.37 1021.69 1022.05 1022.39 1022.63 1022.89 1022.97 1023.07 1023.19 1023.43 1023.71 1023.91 1024.21 1024.45 1024.71 1024.97 1025.13 1025.41 1025.79 1026.01 1026.43 1026.43 1026.57 1026.93 1027.39 1027.53 1027.91 1028.09 1028.39 1028.67
1018.79 1018.95 1019.13 1019.29 1019.43 1019.63 1019.83 1019.93 1020.07 1020.29 1020.49 1020.79 1021.03 1021.41 1021.67 1021.99 1022.31 1022.59 1022.71 1022.79 1023.01 1023.23 1023.51 1023.83 1024.11 1024.45 1024.67 1024.79 1025.03 1025.19 1025.55 1025.89 1026.23 1026.25 1026.39 1026.69 1027.29 1027.55 1027.73 1027.91 1028.11 1028.43
1018.63 1018.79 1018.97 1019.15 1019.33 1019.41 1019.53 1019.69 1019.89 1020.07 1020.23 1020.41 1020.81 1021.09 1021.41 1021.75 1022.03 1022.23 1022.43 1022.55 1022.77 1022.99 1023.23 1023.55 1023.87 1024.29 1024.57 1024.69 1024.87 1025.21 1025.51 1025.59 1025.97 1026.07 1026.17 1026.73 1027.05 1027.49 1027.69 1027.75 1027.91 1028.21
1018.65 1018.75 1018.89 1019.09 1019.17 1019.17 1019.27 1019.47 1019.69 1019.85 1019.97 1020.27 1020.51 1020.81 1021.05 1021.27 1021.55 1021.85 1022.09 1022.41 1022.63 1022.79 1023.03 1023.25 1023.49 1023.81 1024.23 1024.47 1024.71 1025.09 1025.39 1025.63 1025.77 1025.89 1026.09 1026.57 1026.91 1027.13 1027.55 1027.71 1027.91 1028.19
1018.57 1018.63 1018.75 1018.93 1019.01 1018.97 1019.11 1019.25 1019.41 1019.55 1019.75 1019.93 1020.21 1020.57 1020.85 1020.91 1021.17 1021.53 1021.85 1022.15 1022.41 1022.65 1022.87 1023.09 1023.29 1023.67 1024.05 1024.17 1024.39 1024.65 1024.95 1025.37 1025.51 1025.61 1025.81 1026.25 1026.57 1026.79 1027.13 1027.53 1027.93 1028.13
1018.33 1018.41 1018.53 1018.67 1018.75 1018.73 1018.91 1019.03 1019.15 1019.27 1019.49 1019.65 1019.87 1020.25 1020.55 1020.81 1021.01 1021.35 1021.75 1022.05 1022.27 1022.57 1022.75 1022.93 1023.23 1023.51 1023.77 1023.81 1023.91 1024.21 1024.55 1024.87 1025.25 1025.41 1025.57 1025.73 1025.87 1026.39 1026.87 1027.23 1027.43 1027.97
1018.09 1018.31 1018.31 1018.29 1018.35 1018.51 1018.67 1018.87 1018.99 1019.15 1019.41 1019.47 1019.73 1020.01 1020.29 1020.65 1021.01 1021.29 1021.59 1021.91 1022.11 1022.31 1022.53 1022.67 1022.83 1023.09 1023.37 1023.59 1023.71 1023.87 1024.07 1024.39 1024.71 1024.97 1025.23 1025.41 1025.51 1025.79 1026.19 1026.61 1027.13 1027.31
1017.59 1017.93 1018.05 1018.07 1018.17 1018.31 1018.47 1018.63 1018.81 1018.95 1019.19 1019.37 1019.49 1019.73 1020.09 1020.33 1020.61 1021.01 1021.21 1021.47 1021.65 1021.87 1022.05 1022.15 1022.35 1022.67 1022.93 1023.09 1023.29 1023.55 1023.85 1024.13 1024.35 1024.57 1024.85 1025.07 1025.33 1025.65 1026.01 1026.39 1026.79 1027.17
1017.03 1017.17 1017.59 1017.97 1018.07 1018.09 1018.35 1018.53 1018.59 1018.65 1018.83 1019.03 1019.31 1019.53 1019.83 1020.09 1020.39 1020.67 1020.91 1021.05 1021.25 1021.53 1021.81 1021.95 1022.11 1022.37 1022.65 1022.87 1023.09 1023.21 1023.37 1023.73 1024.17 1024.49 1024.77 1025.03 1025.27 1025.53 1025.87 1026.23 1026.61 1026.85
1016.39 1016.77 1017.17 1017.53 1017.91 1018.09 1018.13 1018.27 1018.39 1018.43 1018.49 1018.69 1019.03 1019.27 1019.53 1019.73 1019.95 1020.21 1020.49 1020.73 1020.85 1021.09 1021.29 1021.59 1021.85 1022.07 1022.27 1022.53 1022.77 1022.97 1023.13 1023.37 1023.69 1024.11 1024.61 1024.99 1025.29 1025.51 1025.67 1025.91 1026.21 1026.49
1016.09 1016.49 1016.87 1017.25 1017.59 1017.91 1018.01 1017.99 1018.03 1018.15 1018.29 1018.41 1018.59 1018.79 1019.07 1019.31 1019.59 1019.87 1020.19 1020.49 1020.67 1020.85 1021.11 1021.41 1021.61 1021.65 1021.69 1021.93 1022.35 1022.77 1022.87 1022.97 1023.29 1023.73 1024.11 1024.47 1024.89 1025.19 1025.47 1025.77 1026.11 1026.37
1016.05 1016.27 1016.53 1016.85 1017.15 1017.31 1017.51 1017.71 1017.79 1017.91 1018.05 1018.13 1018.21 1018.37 1018.63 1018.93 1019.25 1019.57 1019.77 1019.95 1020.23 1020.51 1020.69 1020.93 1021.05 1021.13 1021.21 1021.29 1021.43 1021.65 1022.13 1022.51 1022.81 1023.05 1023.35 1023.73 1024.23 1024.77 1025.23 1025.53 1025.81 1026.09
1015.81 1016.05 1016.27 1016.41 1016.49 1016.81 1017.09 1017.35 1017.43 1017.53 1017.69 1017.79 1017.95 1018.11 1018.27 1018.53 1018.87 1019.15 1019.25 1019.45 1019.69 1019.93 1020.13 1020.21 1020.35 1020.49 1020.75 1020.95 1021.27 1021.83 1022.21 1022.45 1022.67 1023.05 1023.39 1023.63 1023.87 1024.11 1024.55 1025.11 1025.59 1025.93
1015.23 1015.57 1015.81 1015.83 1016.09 1016.19 1016.43 1016.73 1017.03 1017.13 1017.17 1017.29 1017.53 1017.71 1017.87 1018.27 1018.51 1018.41 1018.59 1018.87 1019.07 1019.29 1019.45 1019.53 1019.71 1019.97 1020.37 1020.87 1021.35 1021.61 1021.95 1022.27 1022.59 1022.89 1023.21 1023.45 1023.69 1023.95 1024.27 1024.71 1025.19 1025.63
1014.91 1015.13 1015.27 1015.47 1015.53 1015.73 1016.09 1016.51 1016.71 1016.81 1016.75 1016.81 1016.91 1017.07 1017.57 1017.81 1017.81 1018.11 1018.23 1018.33 1018.49 1018.65 1018.83 1019.03 1019.25 1019.57 1019.95 1020.13 1020.23 1020.53 1020.87 1021.29 1021.71 1022.07 1022.47 1022.87 1023.27 1023.65 1024.01 1024.39 1024.83 1025.25
1014.79 1015.11 1015.27 1015.33 1015.57 1015.87 1016.15 1016.35 1016.49 1016.33 1016.31 1016.47 1016.69 1016.97 1017.09 1017.25 1017.49 1017.59 1017.73 1017.87 1017.91 1018.11 1018.35 1018.51 1018.71 1018.95 1019.15 1019.55 1019.85 1020.03 1020.33 1020.93 1021.49 1021.81 1022.13 1022.41 1022.79 1023.27 1023.75 1024.23 1024.61 1024.87
1014.27 1014.47 1014.59 1014.79 1015.05 1015.31 1015.61 1015.79 1015.85 1016.01 1016.29 1016.35 1016.43 1016.47 1016.57 1016.65 1016.77 1017.09 1017.21 1017.37 1017.57 1017.75 1017.95 1018.15 1018.27 1018.51 1018.71 1018.97 1019.21 1019.65 1019.95 1020.29 1020.95 1021.67 1022.25 1022.59 1022.95 1023.09 1023.35 1023.71 1024.05 1024.47
1013.99 1014.27 1014.49 1014.73 1014.93 1015.11 1015.23 1015.21 1015.33 1015.53 1015.71 1015.93 1016.17 1016.31 1016.35 1016.37 1016.47 1016.61 1016.77 1016.99 1017.11 1017.39 1017.65 1017.81 1017.95 1018.21 1018.59 1018.83 1019.03 1019.19 1019.73 1020.49 1021.01 1021.25 1021.65 1021.99 1022.37 1022.91 1023.25 1023.77 1024.09 1024.35
1013.49 1013.73 1014.01 1014.27 1014.51 1014.75 1014.81 1014.87 1015.07 1015.27 1015.47 1015.71 1015.93 1015.93 1016.01 1016.03 1015.97 1016.09 1016.33 1016.69 1016.91 1017.09 1017.29 1017.51 1017.81 1017.95 1018.19 1018.61 1019.05 1019.31 1019.61 1020.17 1020.77 1021.05 1021.31 1021.73 1022.09 1022.55 1022.83 1023.15 1023.57 1023.95
1012.91 1013.17 1013.41 1013.71 1014.05 1014.15 1014.25 1014.45 1014.67 1014.87 1015.07 1015.23 1015.35 1015.53 1015.71 1015.75 1015.93 1016.19 1016.39 1016.57 1016.79 1016.97 1017.11 1017.31 1017.49 1017.77 1017.83 1018.09 1018.55 1018.97 1019.29 1019.79 1020.37 1020.83 1021.37 1021.93 1022.49 1022.83 1023.21 1023.57 1023.85 1024.03
1012.45 1012.67 1012.85 1013.09 1013.35 1013.51 1013.79 1014.09 1014.25 1014.31 1014.45 1014.81 1014.99 1015.17 1015.31 1015.63 1015.91 1016.15 1016.39 1016.59 1016.75 1016.97 1017.19 1017.43 1017.65 1017.97 1018.23 1018.37 1018.61 1018.91 1019.33 1020.09 1020.67 1021.23 1021.63 1021.91 1022.27 1022.71 1023.13 1023.49 1023.89 1024.19
1012.03 1012.17 1012.27 1012.45 1012.61 1012.97 1013.39 1013.61 1013.85 1014.15 1014.29 1014.43 1014.61 1014.77 1014.97 1015.19 1015.43 1015.59 1015.85 1016.07 1016.31 1016.55 1016.75 1016.97 1017.33 1017.69 1017.83 1018.05 1018.39 1018.79 1019.37 1020.03 1020.43 1020.77 1021.35 1022.03 1022.29 1022.49 1022.97 1023.45 1023.73 1024.07
Wind_Speed
9 7 8 8 7 7 9 9 8 9 9 8 9 9 9 9 8 9 9 7 8 9 9 9 9 10 9 9 10 9 9 9 8 7 9 9 8 9 8 8 6 8
10 8 7 8 7 7 8 9 9 9 10 9 8 7 7 7 8 8 8 9 8 8 8 8 8 9 10 9 9 9 8 8 8 5 9 9 8 9 9 9 8 6
9 9 10 10 10 10 10 9 8 8 8 9 8 7 7 7 9 8 8 8 8 8 8 8 8 8 9 8 9 9 9 8 9 6 8 10 8 9 8 9 8 8
10 10 10 10 9 9 8 8 8 7 7 7 8 8 8 7 8 9 8 7 7 6 6 7 8 7 7 8 8 8 8 9 8 8 8 7 8 9 9 8 7 6
11 10 10 9 9 8 8 9 9 8 8 8 7 7 8 8 8 7 7 7 7 7 7 7 6 7 7 8 8 9 8 8 7 9 10 9 7 9 8 9 9 9
9 10 10 10 9 9 9 9 9 9 8 8 9 8 8 9 9 9 9 9 8 8 8 8 8 7 8 9 9 9 9 9 9 9 10 10 8 7 8 8 10 10
10 10 11 9 9 9 9 9 8 9 8 8 7 9 8 9 10 10 10 10 10 10 10 10 10 9 8 9 9 9 8 9 10 10 11 9 9 9 7 9 10 10
9 8 9 9 10 9 10 9 9 9 8 7 9 8 10 11 11 10 9 9 10 10 10 10 10 11 10 9 10 10 9 8 10 11 11 10 10 11 9 8 9 11
8 9 9 10 11 10 10 9 9 9 8 9 9 9 8 10 11 10 10 10 10 10 10 10 10 10 9 10 11 12 12 10 10 11 12 12 12 12 12 9 9 10
9 8 10 11 12 10 11 10 10 9 8 9 9 8 10 8 9 10 9 10 10 10 10 10 10 9 10 11 12 13 13 13 11 11 11 13 13 13 12 12 12 11
9 9 11 12 12 10 11 10 10 9 8 9 9 9 9 8 8 8 9 10 10 11 11 12 12 12 12 11 10 11 12 13 13 12 11 12 12 13 13 13 12 12
11 10 12 12 11 10 11 10 10 9 9 8 9 10 9 9 10 9 10 11 11 11 12 13 13 12 13 13 13 12 11 11 12 12 12 12 11 11 12 11 12 11
12 13 11 10 10 10 9 9 10 10 10 10 9 10 10 10 9 11 10 11 12 11 11 12 12 12 12 12 12 12 13 12 11 10 9 9 9 10 10 10 10 11
12 11 10 10 8 8 9 10 10 9 10 9 8 10 10 11 12 12 11 11 12 12 12 11 12 12 12 12 11 12 12 12 12 12 10 8 8 9 10 11 11 10
9 9 8 8 8 8 9 11 11 10 9 9 10 10 9 10 10 11 11 11 10 11 11 10 11 12 11 12 12 12 11 12 12 12 12 12 11 10 9 9 8 8
8 7 9 9 10 11 11 10 10 11 10 11 11 11 10 10 10 10 11 12 12 12 11 10 11 9 13 19 16 14 14 11 12 13 13 13 12 11 10 9 9 9
8 9 9 11 11 10 10 11 11 11 11 11 11 11 11 11 10 12 12 11 13 13 14 12 11 10 17 17 18 13 11 11 12 11 10 11 12 13 13 11 9 8
10 10 11 12 11 12 12 12 11 11 12 12 12 11 11 9 11 14 13 12 12 13 13 13 12 14 15 14 15 17 13 11 10 11 11 11 11 12 11 10 10 9
9 10 11 11 12 11 10 9 10 11 12 12 13 12 10 12 13 12 13 13 13 14 14 13 11 15 16 20 19 19 19 14 10 11 11 12 11 11 11 11 10 10
8 8 9 10 8 8 8 9 11 13 12 10 9 9 12 12 12 14 13 13 13 13 13 12 12 17 20 24 23 23 19 16 11 12 11 12 12 12 11 11 11 11
9 10 11 10 10 10 11 12 13 12 11 10 10 12 13 13 14 13 13 12 13 12 12 12 11 19 23 25 25 21 21 16 10 9 8 8 9 11 12 12 12 11
9 9 9 9 9 10 11 13 13 13 13 11 10 9 9 9 10 10 12 12 12 13 12 12 11 18 21 23 24 20 22 13 10 12 11 11 11 10 10 10 10 11
9 10 10 10 10 11 12 13 12 12 11 8 10 10 11 11 12 12 10 11 11 11 12 11 10 16 20 22 21 19 18 11 10 9 9 10 11 12 12 11 11 11
10 10 11 11 11 13 13 12 11 9 10 9 11 11 11 11 9 8 8 9 10 11 12 11 10 14 21 22 23 22 17 12 10 10 8 8 6 6 5 6 9 13
9 10 10 11 12 13 12 12 12 12 10 9 9 9 9 7 7 7 7 7 8 10 11 11 8 8 15 19 20 20 15 8 8 7 9 9 9 8 7 7 7 9
8 10 11 11 12 11 10 11 9 8 9 10 9 8 8 8 8 8 9 9 8 9 9 10 9 8 12 19 19 20 15 11 8 10 9 8 8 9 9 7 7 7
Wind_Direction
192 183 187 186 189 186 183 187 189 187 192 191 194 196 195 195 183 189 187 177 179 176 175 178 175 172 173 173 175 168 171 169 162 163 166 161 161 157 157 158 162 160
194 186 184 186 189 187 190 190 188 190 192 196 199 193 191 181 194 188 184 179 177 180 174 172 174 172 168 168 167 162 156 154 157 161 152 156 159 154 157 159 153 147
190 189 189 191 192 191 190 191 190 193 193 195 189 183 185 190 187 191 183 182 178 173 172 170 169 171 167 164 160 158 158 156 154 161 149 156 153 154 158 152 148 158
195 193 194 197 193 192 188 186 192 190 189 184 185 180 179 184 184 188 186 179 174 172 171 167 169 164 162 158 155 158 160 161 158 153 146 146 159 151 155 149 142 136
194 195 196 196 196 190 186 190 190 189 188 185 173 169 168 171 179 185 180 179 173 170 167 168 161 162 158 158 160 155 160 155 161 156 152 158 164 155 156 147 148 145
199 196 196 196 195 189 192 195 193 189 187 179 179 172 177 173 177 185 184 178 177 171 170 166 165 168 168 166 164 166 162 160 169 161 157 160 162 162 154 154 149 152
199 195 198 196 195 194 195 198 195 193 192 185 166 181 170 176 181 184 185 184 176 175 174 172 170 171 176 167 167 166 170 166 165 167 161 163 156 157 160 156 157 156
202 197 196 198 200 197 198 197 196 196 191 171 182 182 176 180 184 184 182 180 180 180 179 177 175 174 172 169 169 169 172 172 170 169 165 161 162 161 164 164 158 156
203 198 195 201 202 202 201 196 197 195 185 183 183 180 186 184 183 180 181 180 183 183 180 180 178 175 175 174 176 174 174 178 178 173 168 166 170 169 167 160 160 164
207 201 197 201 204 203 201 199 197 196 185 188 185 176 184 188 179 178 178 182 184 183 183 180 179 180 181 184 179 178 178 177 178 179 176 175 171 168 166 167 169 164
207 205 207 204 206 201 204 198 200 195 189 191 181 184 185 176 179 176 179 181 186 186 185 185 186 183 184 187 186 183 180 177 179 179 179 179 176 172 170 170 170 172
205 205 213 211 205 205 202 199 198 195 191 195 187 187 184 185 180 181 183 187 190 190 189 190 186 186 188 188 185 182 181 181 179 179 179 179 177 173 170 171 172 171
204 207 205 211 210 205 199 200 201 197 191 194 189 190 188 186 186 184 190 189 193 187 192 191 189 188 190 190 188 184 179 176 178 179 176 176 174 171 171 172 175 174
206 202 202 204 208 209 203 203 203 201 198 192 184 194 195 192 188 190 191 193 194 191 193 191 190 190 191 190 188 185 179 178 175 173 171 170 169 174 176 178 180 180
198 198 195 195 198 205 209 206 204 204 199 195 194 198 196 197 193 190 189 195 195 193 191 191 193 196 193 186 183 186 184 176 172 171 172 172 175 175 176 175 176 179
201 193 192 191 197 204 209 207 204 202 200 201 201 199 196 194 192 191 194 195 193 196 194 192 199 198 196 191 185 181 179 178 177 178 176 173 170 170 174 176 177 177
193 199 190 198 202 202 204 205 206 200 201 203 201 198 199 195 189 193 199 196 196 195 196 198 198 199 193 189 187 180 177 180 177 174 174 173 175 174 173 172 173 174
198 193 196 203 199 204 201 203 202 202 202 202 199 199 200 188 195 201 199 197 199 199 201 201 200 196 187 175 174 180 178 177 176 175 177 178 178 177 173 168 167 166
200 199 203 205 207 204 201 196 202 207 207 202 202 199 188 194 202 200 204 201 200 201 203 200 201 186 173 182 181 175 178 175 180 175 175 178 176 175 172 170 166 161
203 203 210 214 208 202 198 200 205 213 211 207 202 193 196 199 200 204 204 204 203 203 203 201 199 187 184 190 187 184 175 171 179 178 180 178 176 173 172 170 169 165
204 201 208 205 199 197 197 203 208 213 209 207 202 200 199 199 201 203 206 205 204 203 204 203 203 196 194 191 192 184 173 171 175 167 171 171 176 175 174 175 173 167
202 208 212 209 207 204 205 210 210 208 208 204 205 209 211 206 209 206 206 206 204 202 202 206 204 199 198 197 192 181 172 174 171 173 176 180 176 174 169 171 170 164
203 206 208 207 206 207 212 214 211 211 211 199 207 209 207 207 208 206 205 204 204 203 203 207 206 197 196 198 197 179 170 181 177 180 176 173 172 174 178 173 171 171
205 204 208 207 205 211 213 215 213 212 208 198 205 205 211 212 210 209 207 207 205 207 204 206 208 202 197 194 193 188 180 177 171 173 171 162 157 158 152 163 171 169
205 206 208 207 210 214 212 212 208 207 203 195 205 205 212 203 202 206 206 206 207 207 208 209 208 204 205 202 194 188 176 161 163 155 165 172 164 162 157 160 168 176
205 207 210 209 213 213 210 213 206 200 195 194 200 199 200 194 195 198 198 204 200 202 202 201 191 187 192 192 191 183 161 164 169 167 173 165 166 165 164 169 165 169